Time,TemperatureF,DewpointF,PressureIn,WindDirection,WindDirectionDegrees,WindSpeedMPH,WindSpeedGustMPH,Humidity,HourlyPrecipIn,Conditions,Clouds,dailyrainin,SoftwareType,DateUTC
2013-05-19 00:03:00,63.0,60.0,30.11,SSE,148,0.0,7.0,90,0.00,,,0.01,,2013-05-19 04:03:00,
2013-05-19 00:13:00,63.0,60.0,30.11,SSE,148,0.0,7.0,90,0.00,,,0.01,,2013-05-19 04:13:00,
2013-05-19 00:23:00,63.0,60.0,30.12,SE,140,0.0,4.0,90,0.00,,,0.01,,2013-05-19 04:23:00,
2013-05-19 00:33:00,62.0,59.0,30.12,SE,138,1.0,4.0,90,0.00,,,0.01,,2013-05-19 04:33:00,
2013-05-19 00:42:00,62.0,59.0,30.12,SE,138,1.0,4.0,90,0.00,,,0.01,,2013-05-19 04:42:00,
2013-05-19 00:53:00,62.0,59.0,30.12,SE,133,0.0,2.0,91,0.00,,,0.01,,2013-05-19 04:53:00,
2013-05-19 01:02:00,62.0,59.0,30.12,SE,129,0.0,2.0,91,0.00,,,0.01,,2013-05-19 05:02:00,
2013-05-19 01:12:00,62.0,59.0,30.12,SE,129,0.0,2.0,91,0.00,,,0.01,,2013-05-19 05:12:00,
2013-05-19 01:22:00,62.0,59.0,30.11,SE,124,1.0,4.0,90,0.00,,,0.01,,2013-05-19 05:22:00,
2013-05-19 01:32:00,62.0,59.0,30.11,SE,138,0.0,2.0,90,0.00,,,0.01,,2013-05-19 05:32:00,
2013-05-19 01:42:00,61.0,58.0,30.11,SE,146,0.0,4.0,90,0.00,,,0.01,,2013-05-19 05:42:00,
2013-05-19 01:52:00,61.0,58.0,30.11,SE,146,0.0,4.0,90,0.00,,,0.01,,2013-05-19 05:52:00,
2013-05-19 02:02:00,61.0,58.0,30.11,SSE,148,1.0,4.0,90,0.00,,,0.01,,2013-05-19 06:02:00,
2013-05-19 02:12:00,61.0,58.0,30.11,SSE,148,1.0,4.0,90,0.00,,,0.01,,2013-05-19 06:12:00,
2013-05-19 02:21:00,61.0,58.0,30.10,East,86,0.0,4.0,91,0.00,,,0.01,,2013-05-19 06:21:00,
2013-05-19 02:32:00,61.0,58.0,30.10,ESE,121,0.0,2.0,91,0.00,,,0.01,,2013-05-19 06:32:00,
2013-05-19 02:42:00,61.0,58.0,30.10,ESE,121,0.0,2.0,91,0.00,,,0.01,,2013-05-19 06:42:00,
2013-05-19 02:52:00,60.0,57.0,30.09,SE,128,1.0,4.0,91,0.00,,,0.01,,2013-05-19 06:52:00,
2013-05-19 03:01:00,60.0,57.0,30.09,SE,128,0.0,2.0,91,0.00,,,0.01,,2013-05-19 07:01:00,
2013-05-19 03:11:00,60.0,57.0,30.09,SE,128,0.0,2.0,91,0.00,,,0.01,,2013-05-19 07:11:00,
2013-05-19 03:22:00,59.0,56.0,30.09,SE,128,0.0,1.0,91,0.00,,,0.01,,2013-05-19 07:22:00,
2013-05-19 03:32:00,59.0,57.0,30.09,SE,130,0.0,2.0,92,0.00,,,0.01,,2013-05-19 07:32:00,
2013-05-19 03:42:00,59.0,57.0,30.09,SE,130,0.0,2.0,92,0.00,,,0.01,,2013-05-19 07:42:00,
2013-05-19 03:52:00,59.0,57.0,30.09,SE,130,0.0,1.0,92,0.00,,,0.01,,2013-05-19 07:52:00,
2013-05-19 04:02:00,59.0,57.0,30.09,SE,130,0.0,2.0,92,0.00,,,0.01,,2013-05-19 08:02:00,
2013-05-19 04:12:00,59.0,57.0,30.09,SE,130,0.0,2.0,92,0.00,,,0.01,,2013-05-19 08:12:00,
2013-05-19 04:22:00,58.0,56.0,30.09,SE,130,0.0,0.0,92,0.00,,,0.01,,2013-05-19 08:22:00,
2013-05-19 04:32:00,58.0,56.0,30.09,SE,130,0.0,1.0,92,0.00,,,0.01,,2013-05-19 08:32:00,
2013-05-19 04:42:00,58.0,56.0,30.09,SE,130,0.0,1.0,92,0.00,,,0.01,,2013-05-19 08:42:00,
2013-05-19 04:52:00,58.0,56.0,30.09,SE,130,0.0,2.0,93,0.00,,,0.01,,2013-05-19 08:52:00,
2013-05-19 05:02:00,58.0,56.0,30.09,SE,140,0.0,4.0,93,0.00,,,0.01,,2013-05-19 09:02:00,
2013-05-19 05:12:00,58.0,56.0,30.09,SE,140,0.0,4.0,93,0.00,,,0.01,,2013-05-19 09:12:00,
2013-05-19 05:21:00,58.0,56.0,30.08,ENE,76,0.0,4.0,93,0.00,,,0.01,,2013-05-19 09:21:00,
2013-05-19 05:32:00,58.0,56.0,30.08,SE,145,0.0,2.0,93,0.00,,,0.01,,2013-05-19 09:32:00,
2013-05-19 05:43:00,58.0,56.0,30.08,SE,145,0.0,2.0,93,0.00,,,0.01,,2013-05-19 09:43:00,
2013-05-19 05:53:00,59.0,57.0,30.08,SE,143,0.0,2.0,93,0.00,,,0.01,,2013-05-19 09:53:00,
2013-05-19 06:03:00,59.0,57.0,30.09,SE,131,0.0,4.0,92,0.00,,,0.01,,2013-05-19 10:03:00,
2013-05-19 06:12:00,59.0,57.0,30.09,SE,131,0.0,4.0,92,0.00,,,0.01,,2013-05-19 10:12:00,
2013-05-19 06:23:00,59.0,57.0,30.10,SW,215,0.0,3.0,92,0.00,,,0.01,,2013-05-19 10:23:00,
2013-05-19 06:33:00,59.0,56.0,30.10,WSW,245,0.0,3.0,91,0.00,,,0.01,,2013-05-19 10:33:00,
2013-05-19 06:42:00,59.0,56.0,30.10,WSW,245,0.0,3.0,91,0.00,,,0.01,,2013-05-19 10:42:00,
2013-05-19 06:53:00,59.0,56.0,30.10,SE,132,0.0,6.0,91,0.00,,,0.01,,2013-05-19 10:53:00,
2013-05-19 07:02:00,60.0,57.0,30.11,SSE,150,0.0,4.0,91,0.00,,,0.01,,2013-05-19 11:02:00,
2013-05-19 07:12:00,60.0,57.0,30.11,SSE,150,0.0,4.0,91,0.00,,,0.01,,2013-05-19 11:12:00,
2013-05-19 07:21:00,60.0,57.0,30.11,SE,128,0.0,3.0,90,0.00,,,0.01,,2013-05-19 11:21:00,
2013-05-19 07:32:00,60.0,57.0,30.11,ESE,123,0.0,4.0,90,0.00,,,0.01,,2013-05-19 11:32:00,
2013-05-19 07:42:00,60.0,57.0,30.11,ESE,123,0.0,4.0,90,0.00,,,0.01,,2013-05-19 11:42:00,
2013-05-19 07:52:00,61.0,58.0,30.12,SE,141,1.0,4.0,89,0.00,,,0.01,,2013-05-19 11:52:00,
2013-05-19 08:01:00,61.0,58.0,30.12,SE,141,0.0,4.0,89,0.00,,,0.01,,2013-05-19 12:01:00,
2013-05-19 08:12:00,61.0,58.0,30.12,SE,141,0.0,4.0,89,0.00,,,0.01,,2013-05-19 12:12:00,
2013-05-19 08:22:00,62.0,58.0,30.12,SE,141,0.0,2.0,88,0.00,,,0.01,,2013-05-19 12:22:00,
2013-05-19 08:32:00,62.0,58.0,30.12,SE,142,0.0,4.0,87,0.00,,,0.01,,2013-05-19 12:32:00,
2013-05-19 08:42:00,62.0,58.0,30.12,SE,142,0.0,4.0,87,0.00,,,0.01,,2013-05-19 12:42:00,
2013-05-19 08:52:00,62.0,58.0,30.12,ESE,107,0.0,6.0,87,0.00,,,0.01,,2013-05-19 12:52:00,
2013-05-19 09:01:00,63.0,59.0,30.12,ESE,116,0.0,4.0,86,0.00,,,0.01,,2013-05-19 13:01:00,
2013-05-19 09:11:00,63.0,59.0,30.12,ESE,116,0.0,4.0,86,0.00,,,0.01,,2013-05-19 13:11:00,
2013-05-19 09:21:00,63.0,59.0,30.13,SE,132,0.0,4.0,88,0.00,,,0.01,,2013-05-19 13:21:00,
2013-05-19 09:32:00,63.0,59.0,30.13,ESE,121,0.0,2.0,87,0.00,,,0.01,,2013-05-19 13:32:00,
2013-05-19 09:42:00,63.0,59.0,30.13,ESE,121,0.0,2.0,87,0.00,,,0.01,,2013-05-19 13:42:00,
2013-05-19 09:52:00,63.0,59.0,30.13,ENE,71,1.0,5.0,86,0.00,,,0.01,,2013-05-19 13:52:00,
2013-05-19 10:02:00,64.0,60.0,30.13,SSE,161,1.0,6.0,86,0.00,,,0.01,,2013-05-19 14:02:00,
2013-05-19 10:11:00,64.0,60.0,30.13,SSE,161,1.0,6.0,86,0.00,,,0.01,,2013-05-19 14:11:00,
2013-05-19 10:21:00,64.0,59.0,30.13,West,274,0.0,2.0,85,0.00,,,0.01,,2013-05-19 14:21:00,
2013-05-19 10:32:00,65.0,61.0,30.12,SW,236,0.0,3.0,86,0.00,,,0.01,,2013-05-19 14:32:00,
2013-05-19 10:42:00,65.0,61.0,30.12,SW,236,0.0,3.0,86,0.00,,,0.01,,2013-05-19 14:42:00,
2013-05-19 10:52:00,67.0,62.0,30.12,East,99,1.0,4.0,83,0.00,,,0.01,,2013-05-19 14:52:00,
2013-05-19 11:02:00,68.0,63.0,30.12,SW,228,0.0,5.0,83,0.00,,,0.01,,2013-05-19 15:02:00,
2013-05-19 11:12:00,68.0,63.0,30.12,SW,228,0.0,5.0,83,0.00,,,0.01,,2013-05-19 15:12:00,
2013-05-19 11:22:00,69.0,62.0,30.12,ENE,69,1.0,5.0,79,0.00,,,0.01,,2013-05-19 15:22:00,
2013-05-19 11:33:00,70.0,63.0,30.12,NW,315,0.0,5.0,78,0.00,,,0.01,,2013-05-19 15:33:00,
2013-05-19 11:43:00,70.0,63.0,30.12,NW,315,0.0,5.0,78,0.00,,,0.01,,2013-05-19 15:43:00,
2013-05-19 11:53:00,70.0,63.0,30.12,South,186,0.0,3.0,78,0.00,,,0.01,,2013-05-19 15:53:00,
2013-05-19 12:03:00,70.0,63.0,30.12,ESE,103,0.0,3.0,79,0.00,,,0.01,,2013-05-19 16:03:00,
2013-05-19 12:12:00,70.0,63.0,30.12,ESE,103,0.0,3.0,79,0.00,,,0.01,,2013-05-19 16:12:00,
2013-05-19 12:23:00,70.0,64.0,30.11,NNW,344,0.0,2.0,82,0.00,,,0.01,,2013-05-19 16:23:00,
2013-05-19 12:32:00,70.0,64.0,30.11,East,81,0.0,5.0,80,0.00,,,0.01,,2013-05-19 16:32:00,
2013-05-19 12:42:00,70.0,64.0,30.11,East,81,0.0,5.0,80,0.00,,,0.01,,2013-05-19 16:42:00,
2013-05-19 12:52:00,70.0,64.0,30.11,East,94,0.0,4.0,80,0.00,,,0.01,,2013-05-19 16:52:00,
2013-05-19 13:02:00,70.0,63.0,30.11,NE,53,0.0,2.0,79,0.00,,,0.01,,2013-05-19 17:02:00,
2013-05-19 13:12:00,70.0,63.0,30.11,NE,53,0.0,2.0,79,0.00,,,0.01,,2013-05-19 17:12:00,
2013-05-19 13:22:00,70.0,63.0,30.10,NE,53,0.0,0.0,79,0.00,,,0.01,,2013-05-19 17:22:00,
2013-05-19 13:32:00,70.0,63.0,30.09,ESE,118,0.0,1.0,79,0.00,,,0.01,,2013-05-19 17:32:00,
2013-05-19 13:42:00,70.0,63.0,30.09,ESE,118,0.0,1.0,79,0.00,,,0.01,,2013-05-19 17:42:00,
2013-05-19 13:52:00,70.0,64.0,30.09,ESE,121,0.0,2.0,80,0.00,,,0.01,,2013-05-19 17:52:00,
2013-05-19 14:02:00,70.0,64.0,30.08,East,90,2.0,4.0,81,0.00,,,0.01,,2013-05-19 18:02:00,
2013-05-19 14:12:00,70.0,64.0,30.08,East,90,2.0,4.0,81,0.00,,,0.01,,2013-05-19 18:12:00,
2013-05-19 14:22:00,71.0,63.0,30.08,WNW,289,0.0,4.0,76,0.00,,,0.01,,2013-05-19 18:22:00,
2013-05-19 14:32:00,72.0,64.0,30.07,NE,44,1.0,2.0,76,0.00,,,0.01,,2013-05-19 18:32:00,
2013-05-19 14:43:00,72.0,64.0,30.07,NE,44,1.0,2.0,76,0.00,,,0.01,,2013-05-19 18:43:00,
2013-05-19 14:53:00,73.0,63.0,30.06,NNE,12,1.0,5.0,71,0.00,,,0.01,,2013-05-19 18:53:00,
2013-05-19 15:01:00,73.0,64.0,30.06,East,79,0.0,3.0,74,0.00,,,0.01,,2013-05-19 19:01:00,
2013-05-19 15:11:00,73.0,64.0,30.06,East,79,0.0,3.0,74,0.00,,,0.01,,2013-05-19 19:11:00,
2013-05-19 15:22:00,72.0,63.0,30.06,East,93,0.0,2.0,74,0.00,,,0.01,,2013-05-19 19:22:00,
2013-05-19 15:32:00,74.0,65.0,30.05,ENE,74,0.0,4.0,73,0.00,,,0.01,,2013-05-19 19:32:00,
2013-05-19 15:42:00,74.0,65.0,30.05,ENE,74,0.0,4.0,73,0.00,,,0.01,,2013-05-19 19:42:00,
2013-05-19 15:52:00,75.0,65.0,30.04,East,79,2.0,6.0,70,0.00,,,0.01,,2013-05-19 19:52:00,
2013-05-19 16:02:00,76.0,65.0,30.04,ENE,63,0.0,4.0,69,0.00,,,0.01,,2013-05-19 20:02:00,
2013-05-19 16:11:00,76.0,65.0,30.04,ENE,63,0.0,4.0,69,0.00,,,0.01,,2013-05-19 20:11:00,
2013-05-19 16:22:00,77.0,65.0,30.04,SSE,157,4.0,7.0,67,0.00,,,0.01,,2013-05-19 20:22:00,
2013-05-19 16:32:00,77.0,64.0,30.03,SE,132,0.0,4.0,64,0.00,,,0.01,,2013-05-19 20:32:00,
2013-05-19 16:42:00,77.0,64.0,30.03,SE,132,0.0,4.0,64,0.00,,,0.01,,2013-05-19 20:42:00,
2013-05-19 16:52:00,78.0,64.0,30.03,ENE,67,2.0,7.0,63,0.00,,,0.01,,2013-05-19 20:52:00,
2013-05-19 17:02:00,75.0,65.0,30.03,SE,145,0.0,6.0,71,0.09,,,0.10,,2013-05-19 21:02:00,
2013-05-19 17:11:00,75.0,65.0,30.03,SE,145,0.0,6.0,71,0.09,,,0.10,,2013-05-19 21:11:00,
2013-05-19 17:22:00,72.0,67.0,30.03,SE,144,0.0,1.0,85,0.09,,,0.10,,2013-05-19 21:22:00,
2013-05-19 17:32:00,71.0,66.0,30.03,SE,144,0.0,1.0,83,0.09,,,0.10,,2013-05-19 21:32:00,
2013-05-19 17:43:00,71.0,66.0,30.03,SE,144,0.0,1.0,83,0.09,,,0.10,,2013-05-19 21:43:00,
2013-05-19 17:53:00,72.0,67.0,30.03,SE,143,0.0,1.0,85,0.09,,,0.10,,2013-05-19 21:53:00,
2013-05-19 18:03:00,74.0,69.0,30.02,ESE,119,0.0,1.0,84,0.00,,,0.10,,2013-05-19 22:03:00,
2013-05-19 18:23:00,75.0,68.0,30.02,ESE,120,0.0,1.0,79,0.00,,,0.10,,2013-05-19 22:23:00,
2013-05-19 18:33:00,74.0,65.0,30.02,SSE,162,1.0,4.0,73,0.00,,,0.10,,2013-05-19 22:33:00,
2013-05-19 18:42:00,74.0,65.0,30.02,SSE,162,1.0,4.0,73,0.00,,,0.10,,2013-05-19 22:42:00,
2013-05-19 18:53:00,73.0,64.0,30.01,SE,128,0.0,2.0,74,0.00,,,0.10,,2013-05-19 22:53:00,
2013-05-19 19:02:00,71.0,65.0,30.01,SE,135,0.0,4.0,80,0.00,,,0.10,,2013-05-19 23:02:00,
2013-05-19 19:12:00,71.0,65.0,30.01,SE,135,0.0,4.0,80,0.00,,,0.10,,2013-05-19 23:12:00,
2013-05-19 19:22:00,70.0,65.0,30.01,SE,135,0.0,0.0,83,0.00,,,0.10,,2013-05-19 23:22:00,
2013-05-19 19:32:00,70.0,65.0,30.02,SE,135,0.0,2.0,84,0.00,,,0.10,,2013-05-19 23:32:00,
2013-05-19 19:42:00,70.0,65.0,30.02,SE,135,0.0,2.0,84,0.00,,,0.10,,2013-05-19 23:42:00,
2013-05-19 19:52:00,70.0,64.0,30.02,ESE,119,0.0,1.0,80,0.00,,,0.10,,2013-05-19 23:52:00,
2013-05-19 20:02:00,70.0,62.0,30.03,SE,126,0.0,4.0,77,0.00,,,0.10,,2013-05-20 00:02:00,
2013-05-19 20:12:00,70.0,62.0,30.03,SE,126,0.0,4.0,77,0.00,,,0.10,,2013-05-20 00:12:00,
2013-05-19 20:22:00,69.0,62.0,30.03,SE,127,0.0,1.0,79,0.00,,,0.09,,2013-05-20 00:22:00,
2013-05-19 20:32:00,69.0,61.0,30.04,ESE,111,0.0,1.0,77,0.00,,,0.09,,2013-05-20 00:32:00,
2013-05-19 20:42:00,69.0,61.0,30.04,ESE,111,0.0,1.0,77,0.00,,,0.09,,2013-05-20 00:42:00,
2013-05-19 20:52:00,68.0,62.0,30.04,ESE,111,0.0,1.0,82,0.00,,,0.09,,2013-05-20 00:52:00,
2013-05-19 21:01:00,66.0,61.0,30.04,ESE,111,0.0,1.0,85,0.00,,,0.09,,2013-05-20 01:01:00,
2013-05-19 21:11:00,66.0,61.0,30.04,ESE,111,0.0,1.0,85,0.00,,,0.09,,2013-05-20 01:11:00,
2013-05-19 21:22:00,65.0,61.0,30.05,ESE,111,0.0,0.0,87,0.00,,,0.09,,2013-05-20 01:22:00,
2013-05-19 21:32:00,65.0,61.0,30.05,ESE,111,0.0,1.0,88,0.00,,,0.09,,2013-05-20 01:32:00,
2013-05-19 21:42:00,65.0,61.0,30.05,ESE,111,0.0,1.0,88,0.00,,,0.09,,2013-05-20 01:42:00,
2013-05-19 21:52:00,65.0,61.0,30.06,ESE,111,0.0,0.0,87,0.00,,,0.09,,2013-05-20 01:52:00,
2013-05-19 22:02:00,65.0,61.0,30.07,ESE,111,0.0,0.0,86,0.00,,,0.09,,2013-05-20 02:02:00,
2013-05-19 22:12:00,65.0,61.0,30.07,ESE,111,0.0,0.0,86,0.00,,,0.09,,2013-05-20 02:12:00,
2013-05-19 22:21:00,65.0,61.0,30.07,ESE,111,0.0,0.0,86,0.00,,,0.09,,2013-05-20 02:21:00,
2013-05-19 22:32:00,64.0,59.0,30.08,ESE,111,0.0,0.0,85,0.00,,,0.09,,2013-05-20 02:32:00,
2013-05-19 22:42:00,64.0,59.0,30.08,ESE,111,0.0,0.0,85,0.00,,,0.09,,2013-05-20 02:42:00,
2013-05-19 22:52:00,64.0,59.0,30.08,ESE,111,0.0,0.0,85,0.00,,,0.09,,2013-05-20 02:52:00,
2013-05-19 23:02:00,64.0,60.0,30.08,ESE,111,0.0,0.0,86,0.00,,,0.09,,2013-05-20 03:02:00,
2013-05-19 23:11:00,64.0,60.0,30.08,ESE,111,0.0,0.0,86,0.00,,,0.09,,2013-05-20 03:11:00,
2013-05-19 23:21:00,64.0,60.0,30.08,ESE,111,0.0,0.0,86,0.00,,,0.09,,2013-05-20 03:21:00,
2013-05-19 23:33:00,64.0,60.0,30.07,ESE,111,0.0,0.0,86,0.00,,,0.09,,2013-05-20 03:33:00,
2013-05-19 23:43:00,64.0,60.0,30.07,ESE,111,0.0,0.0,86,0.00,,,0.09,,2013-05-20 03:43:00,
2013-05-19 23:53:00,64.0,60.0,30.07,ESE,111,0.0,1.0,87,0.00,,,0.09,,2013-05-20 03:53:00,